Eden Prairie, MN

10:58 AM CST on February 19, 2017 (GMT -0600)
Flying Cloud

Weather History for KFCM - September, 2014

Change the Weather History Date:

Sunday, September 14, 2014

  Actual Average Record
Temperature  
Mean Temperature 57 °F -  
Max Temperature 66 °F 73 °F 84 °F (2015)
Min Temperature 48 °F 52 °F 41 °F (2007)
Degree Days  
Heating Degree Days 8    
Growing Degree Days 7 (Base 50)    
Moisture  
Dew Point 42 °F    
Average Humidity 61    
Maximum Humidity 83    
Minimum Humidity 37    
Precipitation  
Precipitation 0.00 in - - ()
Sea Level Pressure  
Sea Level Pressure 30.13 in    
Wind  
Wind Speed 8 mph (WSW)    
Max Wind Speed 13 mph    
Max Gust Speed 20 mph    
Visibility 10 miles    
Events      
Averages and records for this station are not official NWS values.
T = Trace of Precipitation, MM = Missing Value Source: NWS Daily Summary

Daily Weather History Graph

Daily Weather History Graph

Search for Another Location

Airport or City:

Trip Planner

Search our weather history database for the weather conditions in past years. The results will help you decide how hot, cold, wet, or windy it might be!

Date:

Astronomy

Sep. 14, 2014 Rise Set
Actual Time 6:51 AM CDT 7:26 PM CDT
Civil Twilight 6:21 AM CDT 7:55 PM CDT
Nautical Twilight 5:47 AM CDT 8:30 PM CDT
Astronomical Twilight 5:10 AM CDT 9:06 PM CDT
Moon 11:04 PM CDT (9/14) 1:12 PM CDT (9/14)
Length of Visible Light 13h 33m
Length of Day
12h 35m
Waning Gibbous, 64% of the Moon is Illuminated
Sep 14
Waning Gibbous
Sep 15
Last Quarter
Sep 24
New
Oct 1
First Quarter
Oct 8
Full

Hourly Weather History & Observations

Time (CDT) Temp. Dew Point Humidity Pressure Visibility Wind Dir Wind Speed Gust Speed Precip Events Conditions
12:53 AM 53.1 °F 42.1 °F 66% 30.14 in 10.0 mi SSW 6.9 mph - N/A   Overcast
1:53 AM 53.1 °F 42.1 °F 66% 30.14 in 10.0 mi SSW 8.1 mph - N/A   Mostly Cloudy
2:53 AM 52.0 °F 42.1 °F 69% 30.12 in 10.0 mi SSW 8.1 mph - N/A   Mostly Cloudy
3:53 AM 52.0 °F 43.0 °F 71% 30.11 in 10.0 mi SSW 10.4 mph - N/A   Overcast
4:53 AM 52.0 °F 43.0 °F 71% 30.11 in 10.0 mi SSW 11.5 mph - N/A   Mostly Cloudy
5:53 AM 48.9 °F 43.0 °F 80% 30.12 in 10.0 mi SSW 8.1 mph - N/A   Scattered Clouds
6:53 AM 48.9 °F 43.0 °F 80% 30.13 in 10.0 mi SW 10.4 mph - N/A   Mostly Cloudy
7:53 AM 48.9 °F 44.1 °F 83% 30.14 in 10.0 mi SW 6.9 mph - N/A   Partly Cloudy
8:53 AM 52.0 °F 45.0 °F 77% 30.14 in 10.0 mi SW 8.1 mph - N/A   Clear
9:53 AM 55.0 °F 46.0 °F 72% 30.14 in 10.0 mi SSW 9.2 mph - N/A   Clear
10:53 AM 57.9 °F 45.0 °F 62% 30.13 in 10.0 mi SSW 5.8 mph - N/A   Clear
11:53 AM 62.1 °F 41.0 °F 46% 30.13 in 10.0 mi WNW 10.4 mph - N/A   Clear
12:53 PM 63.0 °F 39.9 °F 43% 30.12 in 10.0 mi West 11.5 mph 19.6 mph N/A   Clear
1:53 PM 64.0 °F 39.9 °F 41% 30.12 in 10.0 mi West 11.5 mph 19.6 mph N/A   Clear
2:53 PM 63.0 °F 39.0 °F 41% 30.11 in 10.0 mi WSW 12.7 mph - N/A   Clear
3:53 PM 66.0 °F 39.0 °F 37% 30.10 in 10.0 mi WNW 12.7 mph - N/A   Clear
4:53 PM 63.0 °F 36.0 °F 37% 30.10 in 10.0 mi West 12.7 mph 17.3 mph N/A   Clear
5:53 PM 61.0 °F 39.9 °F 46% 30.12 in 10.0 mi WNW 8.1 mph - N/A   Clear
6:53 PM 57.9 °F 42.1 °F 56% 30.12 in 10.0 mi WNW 4.6 mph - N/A   Clear
7:53 PM 57.9 °F 42.1 °F 56% 30.12 in 10.0 mi WNW 5.8 mph - N/A   Clear
8:53 PM 57.0 °F 43.0 °F 59% 30.13 in 10.0 mi WNW 5.8 mph - N/A   Partly Cloudy
9:53 PM 55.0 °F 44.1 °F 67% 30.14 in 10.0 mi West 3.5 mph - N/A   Partly Cloudy
10:53 PM 55.0 °F 46.0 °F 72% 30.14 in 10.0 mi North 3.5 mph - N/A   Overcast
11:53 PM 55.0 °F 46.0 °F 72% 30.15 in 10.0 mi Calm Calm - N/A   Overcast